EZY56TR LXGB-EGGD

Flight info

Callsign EZY56TR
Flight time 2h 45m
Altitude 38000
Route PIMOS M985 MGA DCT BLN DCT MORAL DCT BEXID DCT VTB DCT SIE DCT XERMA DCT ARLUN DCT BUGIX DCT UNGAS DCT DELOG DCT NOVAN DCT RUSIB DCT NOZHU/N0405F290 DCT SHIRI DCT TOJAQ
Aircraft A320/M-SDE3FGHIRWY/LB1

Departure

Time 2026-04-30 14:58
Airport Gibraltar Airport (LXGB)

Arrival

Time 2026-04-30 17:44
Airport Bristol Airport (EGGD)
Time Latitude Longitude Altitude Speed Heading
2026-04-30 14:19 36.15303 -5.34676 19 ft 0 kts 357°
2026-04-30 14:51 36.15266 -5.34673 21 ft 4 kts 357°
2026-04-30 14:52 36.15243 -5.34671 19 ft 4 kts
2026-04-30 14:52 36.15233 -5.34703 19 ft 3 kts 124°
2026-04-30 14:52 36.15235 -5.34706 19 ft 0 kts 124°
2026-04-30 14:55 36.15164 -5.34678 20 ft 10 kts 165°
2026-04-30 14:55 36.15131 -5.34601 17 ft 11 kts 87°
2026-04-30 14:55 36.15138 -5.34400 15 ft 15 kts 87°
2026-04-30 14:56 36.15148 -5.34151 16 ft 0 kts 87°
2026-04-30 14:56 36.15164 -5.34100 17 ft 5 kts 62°
2026-04-30 14:57 36.15175 -5.34062 16 ft 4 kts 75°
2026-04-30 14:57 36.15147 -5.34111 16 ft 17 kts 269°
2026-04-30 14:58 36.15092 -5.35722 84 ft 151 kts 264°
2026-04-30 14:58 36.15096 -5.36996 818 ft 148 kts 268°
2026-04-30 14:58 36.14862 -5.39699 1707 ft 181 kts 238°
2026-04-30 14:59 36.12281 -5.40923 2422 ft 237 kts 180°
2026-04-30 15:00 36.06942 -5.40216 4853 ft 270 kts 150°
2026-04-30 15:00 36.04893 -5.36398 7154 ft 286 kts 98°
2026-04-30 15:01 36.04982 -5.31450 9048 ft 292 kts 84°
2026-04-30 15:01 36.05482 -5.28991 9917 ft 297 kts 75°
2026-04-30 15:01 36.06731 -5.23813 10713 ft 336 kts 75°
2026-04-30 15:02 36.07414 -5.21008 11329 ft 345 kts 75°
2026-04-30 15:02 36.08112 -5.18146 12049 ft 350 kts 75°
2026-04-30 15:03 36.10246 -5.09315 14207 ft 364 kts 75°
2026-04-30 15:03 36.11707 -5.03238 15630 ft 373 kts 75°
2026-04-30 15:04 36.13176 -4.97070 16916 ft 380 kts 75°
2026-04-30 15:04 36.16951 -4.88387 18782 ft 393 kts 45°
2026-04-30 15:05 36.23778 -4.82512 20395 ft 405 kts 32°
2026-04-30 15:06 36.28595 -4.78749 21458 ft 413 kts 32°
2026-04-30 15:06 36.33497 -4.74897 22520 ft 421 kts 32°
2026-04-30 15:07 36.38488 -4.70970 23550 ft 429 kts 32°
2026-04-30 15:07 36.43571 -4.66969 24412 ft 435 kts 31°
2026-04-30 15:08 36.48724 -4.62913 25234 ft 442 kts 31°
2026-04-30 15:08 36.56584 -4.56706 26382 ft 450 kts 31°
2026-04-30 15:09 36.61902 -4.52495 27142 ft 456 kts 31°
2026-04-30 15:09 36.67288 -4.48223 27867 ft 461 kts 31°
2026-04-30 15:10 36.72728 -4.43898 28603 ft 466 kts 31°
2026-04-30 15:11 36.83975 -4.35581 29932 ft 474 kts 21°
2026-04-30 15:11 36.90051 -4.32272 30443 ft 479 kts 21°
2026-04-30 15:12 36.99260 -4.27218 31116 ft 488 kts 22°
2026-04-30 15:13 37.05511 -4.23783 31498 ft 494 kts 22°
2026-04-30 15:14 37.18150 -4.16817 32576 ft 499 kts 22°
2026-04-30 15:14 37.27708 -4.11536 33400 ft 502 kts 22°
2026-04-30 15:16 37.43748 -4.02645 34895 ft 499 kts 22°
2026-04-30 15:17 37.56276 -3.95674 36253 ft 489 kts 22°
2026-04-30 15:18 37.71675 -3.87072 37563 ft 481 kts 23°
2026-04-30 15:19 37.80827 -3.81927 38036 ft 479 kts 23°
2026-04-30 17:39 51.36065 -2.96143 3551 ft 223 kts 45°
2026-04-30 17:41 51.37915 -2.80877 1586 ft 137 kts 92°
2026-04-30 17:42 51.38029 -2.77885 1250 ft 133 kts 94°
2026-04-30 17:42 51.38210 -2.73388 663 ft 137 kts 89°
2026-04-30 17:43 51.38299 -2.71121 604 ft 55 kts 86°
2026-04-30 17:44 51.38369 -2.70746 621 ft 4 kts 19°
2026-04-30 17:44 51.38468 -2.70885 622 ft 7 kts 266°
2026-04-30 17:46 51.38521 -2.71141 611 ft 0 kts 358°